Location: Observatory
(52.1446°N, 0.4624°W)
Time: 22:37:50
(UTC+00:00)

ISS - Pass Details

Date: 12 January 2018
Orbit: 402 x 407 km, 51.6° (Epoch: 22 January)

Event Time Altitude Azimuth Distance (km) Brightness Sun altitude
Exits shadow 06:56:26 10° 254° (WSW) 1,489 -1.4 -10.2°
Reaches altitude 10° 06:56:32 10° 253° (WSW) 1,466 -1.5 -10.2°
Maximum altitude 06:58:20 14° 219° (SW) 1,246 -1.5 -9.9°
Drops below altitude 10° 07:00:08 10° 186° (S) 1,463 -0.8 -9.6°
Sets 07:02:56 0° 160° (SSE) 2,319 0.7 -9.3°
